This is the latest recevied weather packets stored in our database for station/object 9M2MIN-1. If no packets are shown the sender has not sent any weather packets the latest 10 day(s).
| Time | Temp. | Humidity | Pressure | Rain* | Wind** | Luminosity | Snow |
|---|---|---|---|---|---|---|---|
| 1777702657 | 33.89° C | 67% | 1006.9 hPa | - | - | - | - |
| 1777702590 | 33.89° C | 67% | 1006.9 hPa | - | - | - | - |
| 1777701771 | 33.89° C | 66% | 1007.2 hPa | - | - | - | - |
| 1777701690 | 33.89° C | 66% | 1007.2 hPa | - | - | - | - |
| 1777700790 | 33.89° C | 66% | 1007.6 hPa | - | - | - | - |
| 1777700020 | 33.89° C | 66% | 1007.8 hPa | - | - | - | - |
| 1777699890 | 33.89° C | 66% | 1007.8 hPa | - | - | - | - |
| 1777698990 | 33.33° C | 69% | 1008.2 hPa | - | - | - | - |
| 1777698090 | 33.33° C | 70% | 1008.5 hPa | - | - | - | - |
| 1777697292 | 32.78° C | 76% | 1008.9 hPa | - | - | - | - |
| 1777697190 | 32.78° C | 76% | 1008.9 hPa | - | - | - | - |
| 1777696290 | 32.22° C | 78% | 1009.1 hPa | - | - | - | - |
| 1777695389 | 32.22° C | 79% | 1009.4 hPa | - | - | - | - |
| 1777694489 | 31.67° C | 80% | 1009.5 hPa | - | - | - | - |
| 1777693591 | 31.67° C | 81% | 1009.8 hPa | - | - | - | - |
| 1777692855 | 31.67° C | 82% | 1009.9 hPa | - | - | - | - |
| 1777692691 | 31.67° C | 82% | 1009.9 hPa | - | - | - | - |
| 1777691791 | 31.67° C | 83% | 1010 hPa | - | - | - | - |
| 1777690959 | 31.67° C | 83% | 1010 hPa | - | - | - | - |
| 1777690891 | 31.67° C | 83% | 1010 hPa | - | - | - | - |
| 1777689991 | 31.67° C | 85% | 1010.1 hPa | - | - | - | - |
| 1777689175 | 31.67° C | 86% | 1010 hPa | - | - | - | - |
| 1777689091 | 31.67° C | 86% | 1010 hPa | - | - | - | - |
| 1777688292 | 31.67° C | 87% | 1009.8 hPa | - | - | - | - |
| 1777688191 | 31.67° C | 87% | 1009.8 hPa | - | - | - | - |
* Rain since midnight (hover to see other rain measurements)
** Current wind speed in m/s (hover to see current wind gust speed)